INTELSAT 33E DEB, 64408

Orbit data source: Space-Track

INTELSAT 33E DEB, 64408 is space debris in GEO originally from a launch on Wed, 24 Aug 2016 UTC launched from the French Guiana (FRGUI). Debris objects in space refer to the collection of defunct objects orbiting the Earth. Examples of debris include non-operational satellites, rocket bodies, and fragments generated from explosions, collisions, or faulty payload assembly.

Not visible in the next 10 days
Identifier
64408, 2016-053AN
Orbit
GEO
Country
Flag of USUS / ITSO
Related business
Manufacturer
Boeing/ES
Mission
Spacecraft
Bus & Motor
Unknown
Mass
Unknown
Launch date (UTC)
Icon of a cake. It is the launch day of the satellite!2016-08-24 (10 years ago)
Launch vehicle
Unknown
Launch site
French Guiana (FRGUI)
Object type
Payload
Rocket body
Debris
Shape & HBR
Unknown shape, 1.1 m
Radar Cross Section
RCS unknown

Expand to show TLE details & history
Last TLE update: 2 days ago

TLE from 2 days ago
0 INTELSAT 33E DEB
1 64408U 16053AN  26234.44314538 -.00000114  00000-0  00000-0 0  9993
2 64408   3.0873  85.7394 1066344 356.7971   2.7500  1.03231657  6764
Epoch: 2026-08-22T10:38Z
TLE epoch observation values (Epoch: 2026-08-22T10:38:07.760Z)
Latitude
0.00001°
Longitude
-44.37542°
Altitude
30,581.81 km
Speed
3.454 km/s
True Right ascension
05h 43m 38s
True Declination
0° 00' 00"
Sunlit
Object was in daylight at epoch
Visualization orbit readout
Latitude
Unknown
Longitude
Unknown
Altitude
Unknown
Speed
Unknown
Apparent Right ascension
Unknown
Apparent Declination
Unknown
Sunlit
N/A
Visualization observer readout
Local Sidereal Time
15:53:54
Azimuth
Unknown
Elevation
Unknown
Doppler factor
Unknown
Orbital elements
Apogee altitude
39,387.798 km
Perigee altitude
30,567.86 km
Semi-major axis
41,355.966 km
Eccentricity
0.10663
Inclination
3.0873°
RAAN
85.7394°
Arg. of periapsis
356.7971°
True anomaly
3.42563°
Mean anomaly
2.75°
Eccentric anomaly
3.07807°
Mean motion
0.25807 °/min
Orbital period
1,394.98 mins
BSTAR
0
Loading maneuver chart data...
Computing Atmospheric mass density...
Loading historical data...
Loading historical data...
Loading historical data...
Loading historical data...
Loading historical data...
Loading historical data...
Loading historical data...

Documentation

Showing up to 5 results
|